TimeCST,TemperatureF,Dew PointF,Humidity,Sea Level PressureIn,VisibilityMPH,Wind Direction,Wind SpeedMPH,Gust SpeedMPH,PrecipitationIn,Events,Conditions,WindDirDegrees,DateUTC
12:15 AM,39.2,35.6,87,30.00,10.0,Calm,Calm,-,N/A,,Clear,0,2014-01-26 06:15:00
12:35 AM,39.2,35.6,87,30.00,10.0,Calm,Calm,-,N/A,,Clear,0,2014-01-26 06:35:00
12:55 AM,41.0,33.8,76,29.99,10.0,Calm,Calm,-,N/A,,Clear,0,2014-01-26 06:55:00
1:15 AM,41.0,33.8,76,29.98,10.0,Calm,Calm,-,N/A,,Clear,0,2014-01-26 07:15:00
1:35 AM,44.6,32.0,61,29.97,10.0,South,5.8,-,N/A,,Clear,190,2014-01-26 07:35:00
1:55 AM,48.2,30.2,50,29.96,10.0,SSW,4.6,-,N/A,,Clear,200,2014-01-26 07:55:00
2:15 AM,46.4,30.2,53,29.95,10.0,Calm,Calm,-,N/A,,Clear,0,2014-01-26 08:15:00
2:35 AM,42.8,33.8,70,29.95,10.0,Calm,Calm,-,N/A,,Clear,0,2014-01-26 08:35:00
2:55 AM,39.2,33.8,81,29.95,10.0,Calm,Calm,-,N/A,,Clear,0,2014-01-26 08:55:00
3:15 AM,39.2,33.8,81,29.94,10.0,Calm,Calm,-,N/A,,Clear,0,2014-01-26 09:15:00
3:35 AM,39.2,33.8,81,29.93,10.0,Calm,Calm,-,N/A,,Clear,0,2014-01-26 09:35:00
3:55 AM,39.2,35.6,87,29.93,10.0,Calm,Calm,-,N/A,,Clear,0,2014-01-26 09:55:00
4:15 AM,42.8,33.8,70,29.95,10.0,Calm,Calm,-,N/A,,Clear,0,2014-01-26 10:15:00
4:35 AM,46.4,32.0,57,29.94,10.0,SSW,4.6,-,N/A,,Clear,210,2014-01-26 10:35:00
4:55 AM,46.4,32.0,57,29.94,10.0,Calm,Calm,-,N/A,,Clear,0,2014-01-26 10:55:00
5:15 AM,46.4,32.0,57,29.94,10.0,Calm,Calm,-,N/A,,Clear,0,2014-01-26 11:15:00
5:35 AM,46.4,32.0,57,29.94,10.0,Calm,Calm,-,N/A,,Clear,0,2014-01-26 11:35:00
5:55 AM,44.6,35.6,71,29.92,10.0,Calm,Calm,-,N/A,,Clear,0,2014-01-26 11:55:00
6:15 AM,42.8,35.6,76,29.91,10.0,Calm,Calm,-,N/A,,Clear,0,2014-01-26 12:15:00
6:35 AM,42.8,35.6,76,29.91,10.0,Calm,Calm,-,N/A,,Clear,0,2014-01-26 12:35:00
6:55 AM,44.6,33.8,66,29.91,10.0,SSE,3.5,-,N/A,,Clear,160,2014-01-26 12:55:00
7:15 AM,46.4,33.8,62,29.90,10.0,Calm,Calm,-,N/A,,Clear,0,2014-01-26 13:15:00
7:35 AM,48.2,33.8,58,29.90,10.0,South,6.9,-,N/A,,Clear,180,2014-01-26 13:35:00
7:55 AM,50.0,33.8,54,29.90,10.0,South,4.6,-,N/A,,Clear,170,2014-01-26 13:55:00
8:15 AM,50.0,33.8,54,29.90,10.0,SSE,4.6,-,N/A,,Clear,150,2014-01-26 14:15:00
8:35 AM,50.0,33.8,54,29.89,10.0,SE,4.6,-,N/A,,Clear,140,2014-01-26 14:35:00
8:55 AM,50.0,35.6,58,29.89,10.0,Calm,Calm,-,N/A,,Clear,0,2014-01-26 14:55:00
9:15 AM,51.8,33.8,50,29.89,9.0,South,4.6,-,N/A,,Clear,170,2014-01-26 15:15:00
9:35 AM,53.6,33.8,47,29.88,10.0,SSE,4.6,-,N/A,,Clear,160,2014-01-26 15:35:00
9:55 AM,53.6,33.8,47,29.88,9.0,SSE,4.6,-,N/A,,Clear,160,2014-01-26 15:55:00
10:15 AM,55.4,33.8,44,29.87,10.0,SSE,5.8,-,N/A,,Clear,160,2014-01-26 16:15:00
10:35 AM,55.4,33.8,44,29.87,10.0,SSE,4.6,-,N/A,,Clear,160,2014-01-26 16:35:00
10:55 AM,57.2,32.0,38,29.86,10.0,South,8.1,-,N/A,,Clear,180,2014-01-26 16:55:00
11:15 AM,59.0,32.0,36,29.85,10.0,South,10.4,-,N/A,,Partly Cloudy,180,2014-01-26 17:15:00
11:35 AM,59.0,32.0,36,29.84,10.0,South,9.2,-,N/A,,Partly Cloudy,170,2014-01-26 17:35:00
11:55 AM,62.6,30.2,30,29.82,10.0,SSW,11.5,17.3,N/A,,Partly Cloudy,200,2014-01-26 17:55:00
12:15 PM,64.4,28.4,26,29.81,9.0,SSW,13.8,23.0,N/A,,Partly Cloudy,200,2014-01-26 18:15:00
12:35 PM,62.6,30.2,30,29.79,10.0,SSW,12.7,-,N/A,,Scattered Clouds,200,2014-01-26 18:35:00
12:55 PM,62.6,30.2,30,29.78,10.0,South,8.1,-,N/A,,Partly Cloudy,170,2014-01-26 18:55:00
1:15 PM,62.6,32.0,32,29.77,10.0,South,9.2,-,N/A,,Partly Cloudy,180,2014-01-26 19:15:00
1:35 PM,62.6,32.0,32,29.76,10.0,South,8.1,-,N/A,,Mostly Cloudy,170,2014-01-26 19:35:00
1:55 PM,62.6,32.0,32,29.74,10.0,South,6.9,-,N/A,,Scattered Clouds,170,2014-01-26 19:55:00
2:15 PM,62.6,32.0,32,29.73,10.0,South,6.9,-,N/A,,Partly Cloudy,180,2014-01-26 20:15:00
2:35 PM,64.4,33.8,32,29.72,10.0,South,5.8,-,N/A,,Clear,170,2014-01-26 20:35:00
2:55 PM,64.4,32.0,30,29.71,10.0,SSE,6.9,-,N/A,,Clear,160,2014-01-26 20:55:00
3:15 PM,66.2,32.0,28,29.71,10.0,South,8.1,-,N/A,,Clear,170,2014-01-26 21:15:00
3:35 PM,66.2,32.0,28,29.69,10.0,SSE,6.9,-,N/A,,Clear,160,2014-01-26 21:35:00
3:55 PM,68.0,32.0,26,29.69,10.0,SE,6.9,-,N/A,,Clear,140,2014-01-26 21:55:00
4:15 PM,68.0,32.0,26,29.69,10.0,South,4.6,-,N/A,,Clear,180,2014-01-26 22:15:00
4:35 PM,68.0,32.0,26,29.69,10.0,Calm,Calm,-,N/A,,Clear,0,2014-01-26 22:35:00
4:55 PM,69.8,32.0,25,29.69,9.0,South,4.6,-,N/A,,Clear,180,2014-01-26 22:55:00
5:15 PM,69.8,32.0,25,29.70,10.0,South,4.6,-,N/A,,Clear,190,2014-01-26 23:15:00
5:35 PM,66.2,32.0,28,29.70,10.0,SSE,3.5,-,N/A,,Clear,160,2014-01-26 23:35:00
5:55 PM,64.4,32.0,30,29.70,10.0,Calm,Calm,-,N/A,,Clear,0,2014-01-26 23:55:00
6:15 PM,60.8,32.0,34,29.70,10.0,Calm,Calm,-,N/A,,Clear,0,2014-01-27 00:15:00
6:35 PM,57.2,33.8,41,29.72,10.0,Calm,Calm,-,N/A,,Clear,0,2014-01-27 00:35:00
6:55 PM,53.6,35.6,51,29.72,10.0,Calm,Calm,-,N/A,,Clear,0,2014-01-27 00:55:00
7:15 PM,51.8,35.6,54,29.73,10.0,Calm,Calm,-,N/A,,Clear,0,2014-01-27 01:15:00
7:35 PM,50.0,35.6,58,29.73,9.0,Calm,Calm,-,N/A,,Clear,0,2014-01-27 01:35:00
7:55 PM,48.2,35.6,62,29.74,10.0,Calm,Calm,-,N/A,,Clear,0,2014-01-27 01:55:00
8:15 PM,48.2,35.6,62,29.74,10.0,Calm,Calm,-,N/A,,Clear,0,2014-01-27 02:15:00
8:35 PM,48.2,35.6,62,29.75,9.0,Calm,Calm,-,N/A,,Clear,0,2014-01-27 02:35:00
8:55 PM,46.4,35.6,66,29.76,10.0,Calm,Calm,-,N/A,,Clear,0,2014-01-27 02:55:00
9:15 PM,44.6,37.4,76,29.76,10.0,Calm,Calm,-,N/A,,Clear,0,2014-01-27 03:15:00
9:35 PM,46.4,35.6,66,29.77,10.0,Calm,Calm,-,N/A,,Clear,0,2014-01-27 03:35:00
9:55 PM,42.8,35.6,76,29.78,10.0,Calm,Calm,-,N/A,,Clear,0,2014-01-27 03:55:00
10:15 PM,42.8,37.4,81,29.78,10.0,Calm,Calm,-,N/A,,Clear,0,2014-01-27 04:15:00
10:35 PM,42.8,35.6,76,29.79,10.0,Calm,Calm,-,N/A,,Clear,0,2014-01-27 04:35:00
10:55 PM,42.8,35.6,76,29.79,10.0,Calm,Calm,-,N/A,,Clear,0,2014-01-27 04:55:00
11:15 PM,42.8,37.4,81,29.79,10.0,Calm,Calm,-,N/A,,Clear,0,2014-01-27 05:15:00
11:35 PM,42.8,37.4,81,29.79,10.0,Calm,Calm,-,N/A,,Clear,0,2014-01-27 05:35:00
11:55 PM,42.8,35.6,76,29.79,10.0,Calm,Calm,-,N/A,,Clear,0,2014-01-27 05:55:00